585  
ASUS41 KGYX 192110  
RWRGYX  
WEATHER ROUNDUP FOR MAINE AND NEW HAMPSHIRE  
NATIONAL WEATHER SERVICE GRAY ME  
400 PM EST WED FEB 19 2020  
 
MEZ002-005-006-010-012-015-018-020-021-024-026-027-029-192200-  
MAINE  
 
CITY SKY/WX TMP DP RH WIND PRES REMARKS
 
PORTLAND FAIR 34 9 35 NW16G26 30.11R  
SANFORD FAIR 33 9 36 NW9G24 30.12R  
BAR HARBOR FAIR 32 11 41 NW16G26 30.01R  
WISCASSET FAIR 33 7 33 W9G22 30.09R  
ROCKLAND FAIR 31 13 47 W23G30 30.04R WCI 18  
FRYEBURG FAIR 30 2 30 NW14G24 30.11R WCI 19  
LEWISTONAUBURN FAIR 30 8 39 NW21G30 30.10R WCI 17  
AUGUSTA FAIR 29 2 31 W18G32 30.07R WCI 16  
WATERVILLE FAIR 29 8 41 NW14G29 30.04R WCI 18  
BANGOR FAIR 30 15 53 W15G29 30.01R WCI 19  
GREENVILLE N/A 20 4 50 NW15G33 29.91R WCI 6  
MILLINOCKET MOCLDY 25 8 48 W21G35 29.96R WCI 11  
HOULTON CLOUDY 27 5 39 W13G26 29.87R WCI 16  
PRESQUE ISLE FLURRIES 23 15 71 NW18G25 29.87R WCI 9  
FRENCHVILLE CLOUDY 16 4 59 NW21G31 29.84R WCI -1  
CARIBOU FAIR 23 9 55 W13G24 29.84R WCI 11  

 
 
NHZ002-005-008-009-011-012-014-192200-  
NEW HAMPSHIRE  
 
CITY SKY/WX TMP DP RH WIND PRES REMARKS
 
PORTSMOUTH SUNNY 37 5 26 W15G24 30.10R  
ROCHESTER FAIR 33 10 38 NW20 30.10R  
NASHUA FAIR 37 7 28 W17G26 30.15R  
MANCHESTER FAIR 37 2 22 NW15G32 30.13R  
CONCORD FAIR 34 4 28 NW18G29 30.13R  
LACONIA FAIR 32 6 33 NW9G20 30.13R  
PLYMOUTH FAIR 31 5 33 NW13G25 30.14R  
BERLIN FAIR 25 1 35 NW14G31 30.07R WCI 13  
WHITEFIELD FAIR 24 0 35 W17G30 30.11R WCI 11  
JAFFREY FAIR 33 4 29 W8G21 30.13R  
KEENE FAIR 35 6 29 NW12 30.17R  
LEBANON FAIR 33 4 29 W14G24 30.14R  
MT WASHINGTON MOSUNNY -2 -13 60 W71G81 N/A WCI -38  

 
 
VTZ005-007-008-192200-  
VERMONT  
 
CITY SKY/WX TMP DP RH WIND PRES REMARKS
 
ST JOHNSBURY N/A 26 1 34 MISG 30.15R  
MONTPELIER FAIR 24 3 40 NW13G21 30.17R WCI 12  
BURLINGTON FAIR 29 3 33 NE9 30.21R  

 
 
MAZ007-012-024-CTZ003-RIZ002-NYZ038-NYZ072-192200-  
SOUTHERN NEW ENGLAND AND NY  
 
CITY SKY/WX TMP DP RH WIND PRES REMARKS
 
BOSTON FAIR 43 9 24 NW17G30 30.15R  
WORCESTER FAIR 34 9 35 W23G31 30.13R  
NANTUCKET FAIR 45 18 34 W20G29 30.14R  
PROVIDENCE FAIR 41 11 29 NW21G30 30.18R  
HARTFORD FAIR 39 9 29 NW23G30 30.22R  
ALBANY FAIR 35 10 35 W20G30 30.28R  
NEW YORK CITY FAIR 45 13 27 NW18 30.24R  

 
 
ANZ081-ANZ082-ANZ150-NHZ014-MEZ023>029-192200-  
COASTAL MARINE OBSERVATIONS  
 
STATION/POSITION TIME TEMP WIND PRES WAVE
 
AIR SEA DIR/SP/G HT/PER  
(UTC) (F) (DEG/KT/KT) (MB) (FT/S)  
MOUNT DESERT ROC 2100 290/ 31/ 34 1015.7R  
ISLE OF SHOALS 2000 37 300/ 29/ 33 1018.0R  
JEFFREYS LEDGE 2038 43 N/A 7/ 6  
GEORGES BANK BUO 2050 44 1018.6R 10/ 9  

 
   
............KEY...........
 
 
WCI - WIND CHILL  
TC - TEMPERATURE IN CELSIUS  
VSB - VISIBILITY
IN MILES  
HX - HEAT INDEX  
FAIR- INDICATES FEW OR NO CLOUDS BELOW 12,000 FT, WITH NO  
SIGNIFICANT WEATHER AND/OR S TO VISIBILITY.  
 
 
 
CLICK HERE TO GO TO PREVIOUS BULLETINS.

The Nexlab ME Page
The Nexlab NH Page Main Text Page